Preview of NWS' New Version of Forecast
This preview is not operational and should not be used for support decisions.

Regional Weather Roundup (RWR)

Issued by National Weather Service (NWS)

                            
000
ASUS45 KABQ 180110
RWRNM 
NEW MEXICO REGIONAL WEATHER ROUNDUP
NATIONAL WEATHER SERVICE ALBUQUERQUE NM
700 PM MDT WED APR 17 2019

NOTE: "FAIR" MEANS FEW OR NO CLOUDS BELOW 12,000 FEET AGL WITH NO
       SIGNIFICANT WEATHER OR OBSTRUCTIONS TO VISION.

      THIS PRODUCT IS RELEASED AS TWO VERSIONS.  ONE VERSION NEAR
      THE TOP OF THE HOUR CONTAINING PRELIMINARY DATA FROM ALBUQUERQUE
      AND OTHER STATIONS.  A FINAL VERSION WITH ADDITIONAL DATA IS 
      ISSUED ABOUT 10 MINUTES AFTER THE HOUR.
 
NMZ501-503-504-510>518-180200-
NORTHWEST PLATEAU/NORTHCENTRAL MOUNTAINS
  
CITY           SKY/WX    TMP DP  RH WIND       PRES   REMARKS
FARMINGTON     FAIR      65  26  23 NW28G36   29.89R                  
LOS ALAMOS       N/A     48  38  67 SE3       29.99R                  
SANTA FE       FAIR      48  42  80 SW8       29.97R                  
TAOS           LGT RAIN  47  36  65 CALM      30.02R                  
ANGEL FIRE       N/A     40  35  83 CALM      30.03R                  

$$
NMZ402-403-502-505>509-180200-
WESTCENTRAL MOUNTAINS/SOUTHWEST MOUNTAINS
  
CITY           SKY/WX    TMP DP  RH WIND       PRES   REMARKS
GALLUP         FAIR      57  32  38 NW20      30.03R                  
GRANTS         FAIR      56  35  44 NW17G30   30.01R                  
SILVER CITY    FAIR      56  40  56 NW14      30.02S                  

$$
NMZ407-409-411-412-180200-
SOUTHERN DESERTS
  
CITY           SKY/WX    TMP DP  RH WIND       PRES   REMARKS
DEMING         FAIR      62  38  40 W16G33    29.99R                  
LAS CRUCES     LGT RAIN  59  43  54 NW17      29.97R                  
HOLLOMAN AFB   LGT RAIN  54  46  76 SE10      29.98R                  
ALAMOGORDO     MOCLDY    52  46  82 S8        29.96R                  
T OR C         MOCLDY    62  38  40 NW13      29.95R                  

$$
NMZ519>523-180200-
CENTRAL VALLEYS/CENTRAL HIGHLANDS
  
CITY           SKY/WX    TMP DP  RH WIND       PRES   REMARKS
ALBUQUERQUE    LGT RAIN  48  46  93 W8        30.00R                  
DOUBLE EAGLE   LGT RAIN  45  43  93 SW7       30.00R                  
MORIARTY ARPT  FAIR      48  44  84 SW6       30.00R                  
CLINES CORNERS FAIR      44  39  82 W8        29.98R                  
BELEN          TSTM      48  44  87 NE12      30.01R                  
SOCORRO        CLOUDY    49  46  90 NW10      30.01R                  

$$
NMZ524>526-539-540-180200-
SOUTHCENTRAL MOUNTAINS
  
CITY           SKY/WX    TMP DP  RH WIND       PRES   REMARKS
RUIDOSO        CLOUDY    45  37  76 NW15G25   29.99R                  

$$
NMZ527>531-180200-
NORTHEAST HIGHLANDS/NORTHEAST PLAINS
  
CITY           SKY/WX    TMP DP  RH WIND       PRES   REMARKS
LAS VEGAS      FAIR      44  40  85 N12       29.97R                  
RATON          CLOUDY    46  42  86 NE3       29.95R                  
CLAYTON        CLOUDY    51  46  83 W8        29.84R                  

$$
NMZ532>537-180200-
EASTCENTRAL PLAINS
  
CITY           SKY/WX    TMP DP  RH WIND       PRES   REMARKS
SANTA ROSA     CLOUDY    52  39  62 N12       29.90R                  
TUCUMCARI      FAIR      50  46  86 W14       29.82S                  
CANNON AFB     LGT RAIN  48  43  84 N18       29.86R                  
CLOVIS AIRPORT LGT RAIN  47  43  86 NW22      29.85R                  

$$
NMZ028-029-538-180200-
SOUTHEAST PLAINS
  
CITY           SKY/WX    TMP DP  RH WIND       PRES   REMARKS
ROSWELL        MOCLDY    58  44  60 NW10      29.85R                  
ARTESIA        MOCLDY    64  39  39 NW24      29.86R                  
CARLSBAD       FAIR      64  37  36 W20G32    29.83R                  
HOBBS          FAIR      61  39  44 W25G33    29.82S                  


$$